Flag for Netherlands Weather past 2 weeks in 's-Hertogenbosch, Netherlands

Now
66 °F

Broken clouds.


Feels Like: 66 °F
Forecast: 49 / 66 °F
Wind: 3 mph from West

Location: Volkel


UV Index: 3 (Moderate)

Visibility: N/A


Pressure: 30.07 "Hg

Humidity: 52%

Dew point: 48 °F

Location of 's-HertogenboschLocation

Historic Weather in 's-Hertogenbosch

°F

's-Hertogenbosch temperature yesterday

Maximum temperature yesterday: 66 °F (at 3:55 PM)
Minimum temperature yesterday: 48 °F (at 12:25 AM)
Average temperature yesterday: 57 °F

Past Weeks' High & Low Weather Summary

 TemperatureHumidityPressure
High72 °F (Apr 20, 2:55 PM)100% (Apr 9, 3:55 AM)30.45 "Hg (Apr 9, 3:55 AM)
Low28 °F (Apr 16, 6:25 AM)30% (Apr 17, 3:55 PM)29.62 "Hg (Apr 21, 3:55 PM)
Average51 °F71%30.05 "Hg
* Reported Apr 8 2:25 PM — Apr 23 2:25 PM, 's-Hertogenbosch, Weather by CustomWeather, © 2014

Note: Actual official high and low records may vary slightly from our data, if they occured in-between our weather recording intervals... More about our weather records

Advertising

Historic Weather Conditions — Data for Previous 24 hours

 ConditionsComfort  
Time TempWeatherWind HumidityBarometerVisibility
2:25 PM
Apr 23
66 °FBroken clouds.3 mph49%30.09 "HgN/A
1:55 PM66 °FBroken clouds.3 mph52%30.09 "HgN/A
1:25 PM66 °FScattered clouds.5 mph52%30.09 "HgN/A
12:55 PM66 °FPartly sunny.5 mph52%30.09 "HgN/A
12:25 PM63 °FScattered clouds.3 mph64%30.09 "HgN/A
11:55 AM64 °FMostly cloudy.7 mph60%30.09 "HgN/A
11:25 AM63 °FPassing clouds.2 mph64%30.09 "HgN/A
10:55 AM63 °FMild.3 mph64%30.09 "HgN/A
10:25 AM63 °FScattered clouds.6 mph68%30.09 "HgN/A
9:55 AM61 °FPassing clouds.3 mph63%30.09 "HgN/A
9:25 AM57 °FOvercast.2 mph77%30.07 "HgN/A
8:55 AM52 °FFog.1 mph94%30.07 "Hg4 mi
8:25 AM50 °FFog.2 mph100%30.07 "Hg3 mi
8:04 AM48 °FFog.1 mph100%30.07 "Hg3 mi
8:02 AM48 °FLight rain. Partly sunny.1 mph100%30.07 "Hg3 mi
7:55 AM48 °FFog.1 mph100%30.07 "Hg3 mi
7:25 AM48 °FFog.3 mph100%30.07 "Hg2 mi
6:55 AM45 °FFog.5 mph93%30.07 "Hg2 mi
6:25 AM45 °FFog.1 mph100%30.04 "Hg1 mi
6:00 AM43 °FFog.3 mph100%30.04 "Hg1 mi
4:55 AM43 °FFog.3 mph100%30.04 "Hg5 mi
4:25 AM43 °FFog.No wind100%30.04 "Hg1 mi
4:03 AM43 °FFog.1 mph93%30.04 "Hg4 mi
3:55 AM43 °FFog.2 mph100%30.04 "Hg3 mi
3:25 AM45 °FFog.1 mph100%30.04 "Hg3 mi
3:04 AM45 °FFog.1 mph100%30.04 "Hg3 mi
2:55 AM46 °FFog.1 mph93%30.04 "Hg2 mi
2:25 AM45 °FFog.5 mph93%30.01 "Hg4 mi
1:55 AM48 °FOvercast.1 mph94%30.01 "HgN/A
1:25 AM48 °FPassing clouds.2 mph100%30.01 "HgN/A
12:55 AM48 °FCool.2 mph94%30.01 "HgN/A
12:25 AM50 °FPassing clouds.2 mph94%30.01 "HgN/A
11:55 PM
Apr 22
52 °FPassing clouds.2 mph94%29.98 "HgN/A
11:25 PM54 °FMostly cloudy.1 mph88%29.98 "HgN/A
10:55 PM54 °FMostly cloudy.No wind88%29.98 "HgN/A
10:25 PM55 °FMostly cloudy.No wind82%29.95 "HgN/A
9:55 PM54 °FMostly cloudy.2 mph82%29.95 "HgN/A
9:25 PM55 °FPartly sunny.5 mph77%29.95 "HgN/A
8:55 PM57 °FMostly cloudy.8 mph72%29.95 "HgN/A
8:25 PM61 °FMostly cloudy.5 mph63%29.92 "HgN/A
7:55 PM61 °FMostly cloudy.5 mph63%29.92 "HgN/A
7:25 PM63 °FMostly cloudy.3 mph49%29.92 "HgN/A
6:55 PM64 °FPartly sunny.6 mph49%29.89 "HgN/A
6:25 PM64 °FPartly sunny.5 mph46%29.89 "HgN/A
5:55 PM64 °FPassing clouds.6 mph49%29.89 "HgN/A
5:25 PM66 °FPartly sunny.3 mph43%29.89 "HgN/A
4:55 PM66 °FBroken clouds.6 mph46%29.89 "HgN/A
4:25 PM64 °FPartly sunny.5 mph46%29.89 "HgN/A
3:55 PM66 °FPartly sunny.3 mph46%29.89 "HgN/A
3:25 PM63 °FMostly cloudy.7 mph52%29.89 "HgN/A
Weather by CustomWeather, © 2014

See weather overview